sat.trackr.live / text

‹ back to catalog

TIANMU-1 14

NORAD 58648 · 2023-205D

PAYLOAD ACTIVE UNKNOWN

§ Identity

Operator
Country
PRC
Launch date
2023-12-25
Launch site
JSC
Launch vehicle
Mass (kg)
RCS (m²)

Purposes: earth_obs

External: N2YO · Heavens-Above · Gunter

§ Orbital elements

Epoch: 2026-09-19T23:33:49.253184Z

Period
94.27 min
Inclination
97.3390°
Eccentricity
0.0007087
Mean motion
15.27497493 rev/d
Perigee alt
478.4 km
Apogee alt
488.2 km
Semi-major
6,861.4 km
B*
1.3499e-4
RAAN
282.2165°
Arg perigee
15.3226°
Mean anomaly
344.8227°
Rev number
15,197

§ Raw data

TIANMU-1 141 58648U 23205D   26262.98182006  .00003560  00000+0  13499-3 0  99972 58648  97.3390 282.2165 0007087  15.3226 344.8227 15.27497493151975

JSON: /api/v1/satellites/58648 · /tle

For live sub-satellite position, see the globe view (requires WebGL).

§ Visibility from observer

Set your observer location to see the next 7 days of passes ≥ 10°. The values pass through the URL so the page stays shareable.

No JS? Fill the form by hand. The geolocation button needs JavaScript.